User: anonymous   Login
Location: Saint-Denis
(20.8800°S, 55.4481°E)
Time: 18:49:07
(UTC+04:00)
Language:

deb Transtage 4 - Orbit

View from above orbital plane
View from above orbital plane
View from above satellite
View from above satellite

Ground track
Ground track

The orbit data is extracted from the following two-line orbital elements,

1 01829U 65082DU  24053.71838578  .00002793  00000-0  33991-3 0  9991
2 01829  32.2905  72.8732 0028181 117.9945 242.3564 14.81769212 94659
Epoch (UTC): 22 February 2024 17:14:28
Eccentricity: 0.0028181
inclination: 32.2905°
perigee height: 604 km
apogee height: 643 km
right ascension of ascending node: 72.8732°
argument of perigee: 117.9945°
revolutions per day: 14.81769212
mean anomaly at epoch: 242.3564°
orbit number at epoch: 9465

The dashed part of the orbit path shows where the satellite is in the earth's shadow,  

DLR